Tracking 20942 objects as of 14-Jul-2020
HD Live streaming from Space Station
objects crossing your sky now

METEOR 1-27

Track METEOR 1-27 now!
10-day predictions
METEOR 1-27 is classified as:


NORAD ID: 9903
Int'l Code: 1977-024A
Perigee: 843.8 km
Apogee: 900.7 km
Inclination: 81.3 °
Period: 102.2 minutes
Semi major axis: 7243 km
RCS: 4.395 m2 (large)
Launch date: April 5, 1977
Source: Commonwealth of Independent States (former USSR) (CIS)
Launch site: PLESETSK MISSILE AND SPACE COMPLEX (PKMTR)
aabbcc
Your satellite tracking list
Your tracking list is empty




NASA's NSSDC Master Catalog

Two Line Element Set (TLE):
1  9903U 77024A   20196.42573560  .00000056  00000-0  25389-4 0  9993
2  9903  81.2627  73.2731 0039224 358.4048   1.6990 14.08321441223172
Source of the keplerian elements: AFSPC